User: anonymous   Login
Location: Unspecified
(40.7945°N, 111.1337°W)
Time: 14:26:20
(UTC-06:00)
Language:

CZ-3 Stage 3 - Orbit

View from above orbital plane
View from above orbital plane
View from above satellite
View from above satellite

Ground track
Ground track

The orbit data is extracted from the following two-line orbital elements,

1 14900U 84035B   19286.92404660 -.00000020 +00000-0 +19975-3 0  9998
2 14900 030.4727 117.1498 7163456 088.2752 345.1415 02.33883707234625
Epoch (UTC): 13 October 2019 22:10:37
Eccentricity: 0.7163456
inclination: 30.4727°
perigee height: 422 km
apogee height: 34768 km
right ascension of ascending node: 117.1498°
argument of perigee: 88.2752°
revolutions per day: 2.33883707
mean anomaly at epoch: 345.1415°
orbit number at epoch: 23462

The dashed part of the orbit path shows where the satellite is in the earth's shadow,  

DLR